User: anonymous
Location: Kailua
(21.4020°N, 157.7390°W)
Time: 15:42:25
(UTC-10:00)
Language:

Cosmos 2297 Rocket - Orbit

View from above orbital plane
View from above orbital plane
View from above satellite
View from above satellite

Ground track
Ground track

The orbit data is extracted from the following two-line orbital elements,

1 23405U 94077B   14211.16704499 -.00000058  00000-0 -50661-5 0  9257
2 23405 070.9817 269.2774 0001064 172.3806 253.2496 14.15098217 16548
Epoch (UTC): 30 July 2014 04:00:32
Eccentricity: 0.0001064
inclination: 70.9817°
perigee height: 841 km
apogee height: 843 km
right ascension of ascending node: 269.2774°
argument of perigee: 172.3806°
revolutions per day: 14.15098217
mean anomaly at epoch: 253.2496°
orbit number at epoch: 1654

The dashed part of the orbit path shows where the satellite is in the earth's shadow,  

DLR